[[{"header":{"parameterUnit":"m.s-1","parameterCategory":1,"la1":30.2991,"la2":30.254,"lo1":-89.0895,"lo2":-89.0444,"dx":0.0017,"dy":0.0017,"nx":28,"ny":28,"refTime":"2022-11-28T15:00:00:Z","depth":0,"parameterNumber":2,"parameterNumberName":"U-component_of_WINDS"},"data":[0,0,0,0,0,0,0,0,0,0,0,0,0,0,0,0,0,0,0,0,0,0,0,0,0,0,0,0,0,0,0,0,0,0,0,0,0,0,0,0,0,0,0,0,0,0,0,0,0,0,0,0,0,0,0,0,0,0,-2.4088,-2.4089,0,-2.4126,-2.4126,-2.4127,-2.4084,-2.4083,-2.4081,-2.408,-2.4118,-2.4121,-2.4123,0,0,0,0,0,0,0,0,0,0,0,0,0,-2.3983,-2.3985,-2.4088,-2.4089,-2.4089,-2.4126,-2.4126,-2.4127,-2.4085,-2.4083,-2.4081,-2.4079,-2.4118,-2.4121,-2.4124,0,0,0,0,0,0,0,0,0,0,0,0,0,-2.4025,-2.3986,-2.4088,-2.4073,-2.4072,-2.4126,-2.4126,-2.4127,-2.4085,-2.4083,-2.408,-2.4078,-2.4117,-2.412,-2.4124,-2.4195,0,0,-2.4136,-2.4137,0,0,0,0,0,0,0,0,-2.4023,-2.4029,-2.4075,-2.4074,-2.4073,-2.4098,-2.4103,-2.415,-2.4086,-2.408,-2.408,-2.4077,-2.4114,-2.4117,-2.413,-2.4197,-2.4199,-2.4136,-2.4138,-2.414,-2.4141,0,0,0,0,0,0,0,-2.402,-2.4027,-2.4103,-2.4075,-2.4074,-2.4065,-2.4068,-2.4112,-2.411,-2.408,-2.4077,-2.4082,-2.4113,-2.4126,-2.413,-2.4199,-2.4136,-2.4139,-2.4141,-2.4143,-2.4329,-2.4332,0,0,0,0,0,0,-2.4019,-2.4025,-2.4102,-2.4104,-2.4041,-2.4068,-2.4072,-2.4092,-2.4109,-2.4109,-2.4084,-2.408,-2.4121,-2.4126,-2.4132,-2.4217,-2.414,-2.4143,-2.4146,-2.4326,-2.433,-2.4333,0,0,0,0,0,0,-2.4017,-2.4026,-2.41,-2.4064,-2.4073,-2.4073,-2.4096,-2.4094,-2.4108,-2.4112,-2.4112,-2.4098,-2.4119,-2.4126,-2.418,-2.4218,-2.4145,-2.4148,-2.4323,-2.4327,-2.4331,-2.4388,0,0,0,0,0,0,-2.4014,-2.4025,-2.4052,-2.4065,-2.4075,-2.4148,-2.4098,-2.4097,-2.4114,-2.4109,-2.4125,-2.4126,-2.4118,-2.4175,-2.4184,-2.4221,-2.4151,-2.432,-2.4325,-2.433,-2.4382,-2.4393,-2.4402,0,0,0,0,0,-2.401,-2.4066,-2.4053,-2.4063,-2.4108,-2.415,-2.4156,-2.4146,-2.4117,-2.4144,-2.4148,-2.4125,-2.4212,-2.4181,-2.4191,-2.423,-2.4317,-2.4324,-2.433,-2.4378,-2.4391,-2.4402,0,0,0,0,0,0,-2.4056,-2.4067,-2.4053,-2.4115,-2.4132,-2.4143,-2.4176,-2.4159,-2.4185,-2.4179,-2.4166,-2.417,-2.4227,-2.4234,-2.4199,-2.4301,-2.426,-2.4269,-2.4294,-2.4306,-2.4316,-2.4313,-2.4155,0,0,0,0,0,-2.4074,-2.4107,-2.4115,-2.4168,-2.4178,-2.4176,-2.4194,-2.4185,-2.4202,-2.4209,-2.4216,-2.4234,-2.4266,-2.4286,-2.4316,-2.4384,-2.4387,-2.4416,-2.4426,-2.4434,-2.4441,-2.4479,-2.4492,-2.4352,-2.4352,-2.4352,0,0,-2.411,-2.412,-2.4142,-2.4178,-2.419,-2.4226,-2.4182,-2.4221,-2.4247,-2.4215,-2.4266,-2.4273,-2.4292,-2.4354,-2.4381,-2.4361,-2.4481,-2.4442,-2.4448,-2.4451,-2.4487,-2.45,-2.4512,-2.4357,-2.4356,-2.4355,0,0,-2.4194,-2.4205,-2.4251,-2.4265,-2.4284,-2.4283,-2.4294,-2.4308,-2.4311,-2.4363,-2.434,-2.4372,-2.4426,-2.4441,-2.4456,-2.4549,-2.453,-2.4559,-2.4611,-2.4648,-2.4659,-2.4669,-2.4702,-2.4715,-2.4566,-2.4567,-2.4567,0,-2.4236,-2.4288,-2.4277,-2.4318,-2.4335,-2.4309,-2.4356,-2.437,-2.4398,-2.4411,-2.4389,-2.4458,-2.4469,-2.4534,-2.4557,-2.457,-2.4583,-2.4556,-2.4658,-2.4668,-2.4677,-2.4709,-2.4721,-2.457,-2.457,-2.4569,-2.4569,0,-2.434,-2.4376,-2.4412,-2.444,-2.4461,-2.4505,-2.4502,-2.4525,-2.4516,-2.4517,-2.4571,-2.4584,-2.4616,-2.4631,-2.4622,-2.4697,-2.4684,-2.466,-2.4619,-2.4694,-2.4724,-2.4736,-2.4575,-2.4574,-2.4573,-2.4572,0,0,-2.4451,-2.4475,-2.4488,-2.4501,-2.4522,-2.455,-2.4594,-2.4626,-2.4647,-2.4668,-2.4705,-2.4753,-2.4732,-2.4749,-2.4741,-2.4774,-2.4848,-2.4747,-2.4747,-2.4765,-2.4933,-2.495,-2.4964,-2.4836,-2.4838,-2.484,-2.4931,0,-2.4536,-2.4611,-2.4604,-2.4676,-2.471,-2.4687,-2.4726,-2.4743,-2.4747,-2.4777,-2.4781,-2.4816,-2.4785,-2.4795,-2.4827,-2.4832,-2.4882,-2.4826,-2.4871,-2.4873,-2.4866,-2.498,-2.4998,-2.5083,-2.4943,-2.4945,-2.4946,0,-2.4643,-2.4669,-2.4745,-2.4762,-2.4776,-2.4811,-2.484,-2.487,-2.489,-2.489,-2.4911,-2.4898,-2.4944,-2.4903,-2.4966,-2.4929,-2.4947,-2.4953,-2.4956,-2.4959,-2.4913,-2.4986,-2.5109,-2.5122,-2.4964,-2.4963,-2.4962,0,-2.4718,-2.4771,-2.4824,-2.4836,-2.4857,-2.4882,-2.4893,-2.4911,-2.4931,-2.4957,-2.4971,-2.5002,-2.5019,-2.5044,-2.5041,-2.5012,-2.5106,-2.5065,-2.5108,-2.5109,-2.5128,-2.5127,-2.5256,-2.5141,-2.5141,-2.5141,-2.514,0,-2.4812,-2.4859,-2.4858,-2.489,-2.4943,-2.4935,-2.4988,-2.4995,-2.5012,-2.5046,-2.5029,-2.5061,-2.5055,-2.5088,-2.5086,-2.514,-2.5148,-2.515,-2.5148,-2.5151,-2.5151,-2.5162,-2.5156,-2.5144,-2.5143,-2.5143,-2.5142,0,-2.4903,-2.4904,-2.496,-2.4976,-2.4982,-2.502,-2.5035,-2.5066,-2.5069,-2.5113,-2.5122,-2.5127,-2.5166,-2.5165,-2.5209,-2.5208,-2.5273,-2.5265,-2.5266,-2.5264,-2.5308,-2.5304,-2.5449,-2.5468,-2.5341,-2.5342,-2.5343,0,-2.4963,-2.4999,-2.502,-2.5042,-2.5054,-2.5089,-2.511,-2.5105,-2.5127,-2.5155,-2.5183,-2.522,-2.5248,-2.5311,-2.5319,-2.5353,-2.5345,-2.5394,-2.535,-2.5352,-2.5346,-2.5344,-2.5348,-2.5402,-2.5404,-2.5405,-2.5406,0,-2.507,-2.5069,-2.5099,-2.5131,-2.5157,-2.5182,-2.5204,-2.5223,-2.5221,-2.5248,-2.5287,-2.5309,-2.5355,-2.5392,-2.5425,-2.5436,-2.5421,-2.542,-2.5432,-2.5434,-2.5433,-2.5435,-2.5289,-2.5416,-2.5415,-2.5414,-2.5414,-2.5413,-2.5147,-2.5179,-2.5199,-2.5234,-2.5251,-2.5273,-2.5304,-2.5312,-2.5344,-2.538,-2.5376,-2.5419,-2.5441,-2.5484,-2.5499,-2.5534,-2.5517,-2.5534,-2.5538,-2.5542,-2.5547,-2.5428,-2.554,-2.5539,-2.5539,-2.5539,-2.5539,0,-2.5253,-2.5265,-2.5298,-2.5331,-2.536,-2.5344,-2.5369,-2.5394,-2.5432,-2.5454,-2.5483,-2.5529,-2.5566,-2.5577,-2.5613,-2.5639,-2.5633,-2.5649,-2.5646,-2.565,-2.556,-2.5546,-2.5653,-2.5653,-2.5653,-2.5653,-2.5653,-2.5653,-2.5311,-2.5364,-2.5366,-2.5428,-2.544,-2.5483,-2.5499,-2.552,-2.5537,-2.5589,-2.5619,-2.5627,-2.5645,-2.5683,-2.5716,-2.5719,-2.5733,-2.5751,-2.5751,-2.5667,-2.5656,-2.5645,-2.5632,-2.5754,-2.5754,-2.5837,-2.5838,-2.5839]},{"header":{"parameterUnit":"m.s-1","parameterCategory":1,"la1":30.2991,"la2":30.254,"lo1":-89.0895,"lo2":-89.0444,"dx":0.0017,"dy":0.0017,"nx":28,"ny":28,"refTime":"2022-11-28T15:00:00:Z","depth":0,"parameterNumber":3,"parameterNumberName":"V-component_of_WINDS"},"data":[0,0,0,0,0,0,0,0,0,0,0,0,0,0,0,0,0,0,0,0,0,0,0,0,0,0,0,0,0,0,0,0,0,0,0,0,0,0,0,0,0,0,0,0,0,0,0,0,0,0,0,0,0,0,0,0,0,0,0.942,0.942,0,0.9448,0.9448,0.9449,0.9517,0.9518,0.952,0.9521,0.9544,0.9544,0.9543,0,0,0,0,0,0,0,0,0,0,0,0,0,0.9422,0.9422,0.942,0.942,0.9421,0.9448,0.9448,0.9449,0.9517,0.9518,0.952,0.9522,0.9545,0.9544,0.9543,0,0,0,0,0,0,0,0,0,0,0,0,0,0.9432,0.9422,0.942,0.9458,0.9462,0.9448,0.9448,0.9449,0.9516,0.9518,0.9521,0.9523,0.9545,0.9544,0.9543,0.9493,0,0,0.954,0.9539,0,0,0,0,0,0,0,0,0.9432,0.9432,0.9452,0.9455,0.9459,0.9481,0.9458,0.9463,0.9516,0.9495,0.9521,0.9524,0.9521,0.9522,0.9523,0.9494,0.9495,0.954,0.9539,0.9538,0.9538,0,0,0,0,0,0,0,0.9431,0.9432,0.9431,0.9452,0.9457,0.9473,0.9477,0.9459,0.9496,0.9497,0.9502,0.9505,0.9524,0.9524,0.9524,0.9495,0.954,0.9539,0.9538,0.9537,0.9429,0.9427,0,0,0,0,0,0,0.9425,0.943,0.943,0.9432,0.9451,0.9471,0.9475,0.9472,0.9496,0.9502,0.9503,0.9508,0.9524,0.9525,0.9525,0.9469,0.9538,0.9537,0.9537,0.9431,0.9428,0.9426,0,0,0,0,0,0,0.9425,0.9425,0.9429,0.9433,0.9434,0.9469,0.9464,0.9471,0.9471,0.9501,0.9507,0.9496,0.9526,0.9526,0.9501,0.947,0.9537,0.9536,0.9434,0.943,0.9427,0.9355,0,0,0,0,0,0,0.9425,0.9424,0.9406,0.9432,0.9434,0.9405,0.9463,0.947,0.947,0.9477,0.9496,0.9501,0.9528,0.9502,0.95,0.947,0.9535,0.9437,0.9432,0.9428,0.936,0.935,0.9341,0,0,0,0,0,0.9425,0.9383,0.9405,0.9404,0.9412,0.9403,0.9405,0.9438,0.9467,0.9449,0.9468,0.9501,0.9475,0.9499,0.9497,0.9466,0.9439,0.9433,0.9429,0.9365,0.9352,0.9341,0,0,0,0,0,0,0.935,0.9387,0.9411,0.9377,0.9387,0.9415,0.9393,0.9423,0.9423,0.9429,0.9468,0.9472,0.9441,0.9452,0.9478,0.942,0.9462,0.9456,0.9414,0.9402,0.9392,0.939,0.9534,0,0,0,0,0,0.9331,0.9322,0.9354,0.932,0.9324,0.9358,0.9355,0.938,0.9391,0.9395,0.9412,0.942,0.9414,0.9409,0.9405,0.9363,0.9368,0.9341,0.9331,0.9323,0.9317,0.9296,0.9284,0.9409,0.9409,0.9409,0,0,0.9288,0.9307,0.9299,0.9306,0.9317,0.9306,0.936,0.9346,0.9338,0.9392,0.937,0.9383,0.9395,0.9361,0.9347,0.9369,0.9284,0.9316,0.931,0.9308,0.929,0.9278,0.9267,0.9406,0.9407,0.9407,0,0,0.9206,0.9219,0.9194,0.9204,0.922,0.9243,0.9237,0.9261,0.9273,0.9252,0.9293,0.9283,0.9272,0.9279,0.9281,0.9204,0.9234,0.9202,0.9149,0.9129,0.9119,0.911,0.9083,0.9072,0.9196,0.9196,0.9196,0,0.915,0.9137,0.9176,0.916,0.9162,0.9214,0.9188,0.9195,0.9208,0.9208,0.9233,0.9221,0.9232,0.9201,0.9183,0.9183,0.9177,0.9199,0.9117,0.9109,0.9102,0.9076,0.9065,0.9192,0.9192,0.9193,0.9193,0,0.9068,0.9058,0.9036,0.905,0.9049,0.9028,0.9064,0.9058,0.9084,0.9104,0.9082,0.9099,0.9099,0.9094,0.9118,0.9067,0.908,0.9111,0.9153,0.9085,0.9061,0.9052,0.9186,0.9187,0.9189,0.919,0,0,0.8937,0.8976,0.8966,0.8974,0.8997,0.8989,0.8971,0.8974,0.8969,0.8977,0.8962,0.8952,0.8982,0.8984,0.9009,0.8991,0.893,0.9024,0.9025,0.9005,0.8875,0.8851,0.8838,0.8951,0.8949,0.8948,0.8873,0,0.8859,0.8831,0.8867,0.883,0.8822,0.8872,0.8856,0.8868,0.8887,0.8881,0.8902,0.8895,0.8934,0.8936,0.8921,0.894,0.8904,0.8947,0.8936,0.8935,0.893,0.8826,0.88,0.8729,0.8864,0.8863,0.8862,0,0.8763,0.877,0.8733,0.876,0.8758,0.8743,0.8749,0.8744,0.8759,0.8774,0.8778,0.881,0.8793,0.8836,0.8813,0.8842,0.884,0.8849,0.8847,0.8846,0.8893,0.8821,0.8707,0.8696,0.8848,0.8849,0.885,0,0.8671,0.867,0.8648,0.8653,0.8684,0.8673,0.8685,0.8702,0.8702,0.8708,0.8708,0.8711,0.8712,0.8713,0.8744,0.8773,0.8717,0.8763,0.8728,0.8727,0.8712,0.8713,0.8596,0.8713,0.8713,0.8714,0.8714,0,0.8579,0.8554,0.8607,0.8593,0.8567,0.8609,0.8582,0.8599,0.8615,0.8605,0.8648,0.8638,0.8681,0.8675,0.87,0.8677,0.8677,0.8688,0.8694,0.8683,0.8682,0.8681,0.8686,0.8711,0.8712,0.8712,0.8713,0,0.847,0.8505,0.8484,0.8517,0.8524,0.8504,0.8531,0.8519,0.8543,0.853,0.8529,0.8564,0.856,0.8592,0.8593,0.861,0.8574,0.859,0.857,0.8574,0.8537,0.854,0.8415,0.84,0.8528,0.8527,0.8526,0,0.8409,0.8391,0.8423,0.842,0.8431,0.8426,0.8427,0.8468,0.8468,0.8485,0.8471,0.8471,0.8472,0.8462,0.8487,0.8488,0.8503,0.846,0.8504,0.8493,0.8502,0.8502,0.85,0.845,0.8448,0.8447,0.8446,0,0.8296,0.8314,0.8315,0.8322,0.8323,0.833,0.834,0.8335,0.838,0.8376,0.8374,0.8375,0.8378,0.8376,0.8383,0.8394,0.8427,0.8432,0.8424,0.8412,0.84,0.8405,0.8543,0.8434,0.8435,0.8436,0.8437,0.8437,0.8208,0.8195,0.8216,0.8216,0.8228,0.8237,0.8228,0.8252,0.8251,0.8257,0.8281,0.8274,0.8291,0.8304,0.8312,0.8307,0.8328,0.8316,0.8313,0.8309,0.8302,0.8403,0.8308,0.8308,0.8309,0.8309,0.8309,0,0.8097,0.8114,0.8113,0.8127,0.8127,0.8161,0.8174,0.8171,0.8165,0.8179,0.818,0.8177,0.8177,0.8203,0.8206,0.8196,0.8211,0.8195,0.8196,0.8198,0.8283,0.829,0.8183,0.8183,0.8183,0.8183,0.8183,0.8183,0.8039,0.802,0.8041,0.8028,0.8045,0.804,0.8044,0.8053,0.8064,0.8059,0.806,0.8079,0.8097,0.8102,0.8103,0.8111,0.8109,0.8088,0.8101,0.818,0.8192,0.8203,0.8209,0.8088,0.8088,0.8016,0.8015,0.8014]}]]